Location: *
(31.2983°S, 151.4094°E)
Time: 17:37:29
(UTC+00:00)

Cosmos 1743 Rocket - Pass Details

Date: 25 August 2019
Orbit: 604 x 633 km, 82.6° (Epoch: 16 October)

Event Time Altitude Azimuth Distance (km) Brightness Sun altitude
Exits shadow 18:45:55 35° 216° (SW) 1,027 4.3 -20.5°
Drops below altitude 10° 18:48:54 10° 188° (S) 2,023 6.1 -19.9°
Sets 18:51:14 0° 181° (S) 2,933 7.0 -19.4°
